sat.trackr.live / text

‹ back to catalog

AETHER-7

NORAD 67378 · 2026-004R

PAYLOAD ACTIVE UNKNOWN

§ Identity

Operator
Country
CA
Launch date
2026-01-11
Launch site
AFWTR
Launch vehicle
Mass (kg)
RCS (m²)

External: N2YO · Heavens-Above · Gunter

§ Orbital elements

Epoch: 2026-05-25T00:03:19.965024Z

Period
96.88 min
Inclination
97.8006°
Eccentricity
0.0002853
Mean motion
14.86315876 rev/d
Perigee alt
607.5 km
Apogee alt
611.5 km
Semi-major
6,987.6 km
B*
6.7783e-5
RAAN
143.9041°
Arg perigee
173.0980°
Mean anomaly
187.0275°
Rev number
1,983

§ Raw data

AETHER-71 67378U 26004R   26145.00231441  .00000544  00000+0  67783-4 0  99932 67378  97.8006 143.9041 0002853 173.0980 187.0275 14.86315876 19831

JSON: /api/v1/satellites/67378 · /tle

For live sub-satellite position, see the globe view (requires WebGL).

§ Visibility from observer

Set your observer location to see the next 7 days of passes ≥ 10°. The values pass through the URL so the page stays shareable.

No JS? Fill the form by hand. The geolocation button needs JavaScript.